Tracking 35280 objects as of 7-Sep-2026
HD Live streaming from Space Station
objects crossing your sky now

COSMOS 1985 DEB


COSMOS 1985 DEB is no longer on orbit


NORAD ID: 20431
Int'l Code: 1988-113AP
Launch date: December 23, 1988
Source: Commonwealth of Independent States (former USSR) (CIS)
Launch site: PLESETSK MISSILE AND SPACE COMPLEX (PKMTR)
Decay date: 1990-02-18

Note: This is SATELLITE DEBRIS
Your satellite tracking list
Your tracking list is empty




NASA's NSSDC Master Catalog

Two Line Element Set (TLE):
1 20431U 88113 AP 90049.33598046  .11846025 +70000-6 +18979-1 0  9996
2 20431 073.5140 017.8438 0010609 162.0886 197.5679 16.03334913064119
Source of the keplerian elements: AFSPC